[Iaude] MPEC F53: 2024 FO1 [a=1.22,e=0.34,i=22.3,H=26.5]

mpec at cfa.harvard.edu mpec at cfa.harvard.edu
Wed Mar 20 20:56:48 EDT 2024


M.P.E.C. 2024-F53                                Issued 2024 March 21, 00:55 UT

     The Minor Planet Electronic Circulars contain information on unusual
         minor planets, routine data on comets and natural satellites,
         and occasional editorial announcements.  They are published
    on behalf of Division F of the International Astronomical Union by the
          Minor Planet Center, Smithsonian Astrophysical Observatory,
                          Cambridge, MA 02138, U.S.A.
			  
             Prepared using the Tamkin Foundation Computer Network

                              MPC at CFA.HARVARD.EDU
            URL https://www.minorplanetcenter.net/    ISSN 1523-6714

                                    2024 FO1                                    


Observations:
     K24F01O 1C2024 03 19.49909 14 18 31.03 +45 57 57.8          19.3 GVEF053703
     K24F01O 1C2024 03 19.50367 14 17 57.05 +45 52 15.2          19.2 GVEF053703
     K24F01O 1C2024 03 19.50596 14 17 39.92 +45 49 24.3          19.3 GVEF053703
     K24F01O* C2024 03 20.07882113 18 04.83 +32 13 27.0          17.1 GoEF053K88
     K24F01O  C2024 03 20.08007113 17 57.87 +32 11 31.6          18.0 RoEF053K88
     K24F01O KC2024 03 20.08803113 17 14.26 +31 59 05.3          18.4 RoEF053K88
     K24F01O KC2024 03 20.08931113 17 07.20 +31 57 05.2          18.2 RoEF053K88
     K24F01O KC2024 03 20.09058513 17 00.20 +31 55 04.6          18.5 RoEF053K88
     K24F01O KC2024 03 20.09807813 16 19.39 +31 43 21.3          18.6 RoEF053K88
     K24F01O KC2024 03 20.09953813 16 11.36 +31 41 03.7          18.6 RoEF053K88
     K24F01O KC2024 03 20.10093913 16 03.79 +31 38 51.7          18.4 RoEF053K88
     K24F01O KC2024 03 20.10974013 15 16.18 +31 25 03.9          18.6 RoEF053K88
     K24F01O KC2024 03 20.11265813 15 00.46 +31 20 28.1          18.6 RoEF053K88
     K24F01O KC2024 03 20.11725413 14 35.79 +31 13 14.4          18.5 RoEF053K88
     K24F01O KC2024 03 20.11871213 14 28.02 +31 10 57.3          18.6 RoEF053K88
     K24F01O KC2024 03 20.12017213 14 20.16 +31 08 39.8          18.6 RoEF053K88
     K24F01O KC2024 03 20.12686913 13 44.39 +30 58 06.3          18.6 RoEF053K88
     K24F01O KC2024 03 20.12832813 13 36.67 +30 55 49.7          18.4 RoEF053K88
     K24F01O KC2024 03 20.12978713 13 28.93 +30 53 31.6          18.6 RoEF053K88
     K24F01O KC2024 03 20.13124613 13 21.15 +30 51 12.7          18.5 RoEF053K88
     K24F01O KC2024 03 20.13470 13 13 02.08 +30 45 39.3          18.1 VZEF053M38
     K24F01O KC2024 03 20.13557013 12 58.25 +30 44 24.6          18.5 RoEF053K88
     K24F01O KC2024 03 20.13703013 12 50.52 +30 42 05.9          18.5 RoEF053K88
     K24F01O KC2024 03 20.14210 13 12 23.25 +30 33 59.9          18.3 VZEF053M38
     K24F01O  C2024 03 20.25175313 03 39.84 +27 54 51.8                WEF053X09
     K24F01O  C2024 03 20.25527613 03 21.98 +27 49 19.4                WEF053X09
     K24F01O KC2024 03 20.25681913 03 38.030+27 37 22.48         18.52GVEF053I52
     K24F01O KC2024 03 20.25732113 03 35.503+27 36 35.50         18.65GVEF053I52
     K24F01O KC2024 03 20.25782613 03 33.001+27 35 48.16         18.82GVEF053I52
     K24F01O KC2024 03 20.25833113 03 30.467+27 35 01.14         18.55GVEF053I52
     K24F01O KC2024 03 20.26520613 02 42.24 +27 23 43.3          18.9 GVEF053H21
     K24F01O KC2024 03 20.26644313 02 36.08 +27 21 47.5          18.9 GVEF053H21
     K24F01O KC2024 03 20.26796713 02 28.45 +27 19 24.1          18.7 GVEF053H21
     K24F01O KC2024 03 20.27023313 02 17.18 +27 15 51.8          18.7 GVEF053H21
     K24F01O KB2024 03 20.36421 12 54 46.210+24 48 49.93         18.4 RZEF053H36
     K24F01O KB2024 03 20.36771 12 54 29.806+24 43 21.18         18.3 RZEF053H36
     K24F01O KB2024 03 20.37125 12 54 13.253+24 37 49.62         18.4 RZEF053H36
     K24F01O KC2024 03 20.86610 12 22 47.24 +12 24 55.8          18.9 GXEF053K83
     K24F01O KC2024 03 20.86955 12 22 35.39 +12 20 13.6          19.4 GXEF053K83
     K24F01O KC2024 03 20.87018312 22 33.739+12 18 16.70         18.7 GVEF053Z80
     K24F01O KC2024 03 20.87304 12 22 23.38 +12 15 28.7          19.3 GXEF053K83
     K24F01O pC2024 03 20.87730012 22 07.34 +12 09 33.1          18.5 GVEF053L01
     K24F01O pC2024 03 20.87938912 22 00.18 +12 06 42.0          18.8 GVEF053L01
     K24F01O pC2024 03 20.88047812 21 56.42 +12 05 14.4          18.7 GVEF053L01
     K24F01O pC2024 03 20.88161712 21 52.50 +12 03 40.6          18.5 GVEF053L01
     K24F01O pC2024 03 20.88284412 21 48.36 +12 02 01.8          18.5 GVEF053L01
     K24F01O pC2024 03 20.88408912 21 44.08 +12 00 19.7          18.7 GVEF053L01
     K24F01O KC2024 03 20.88903112 21 29.760+11 52 43.28         18.6 GVEF053Z80
     K24F01O KC2024 03 20.90747 12 20 24.81 +11 29 44.3                qEF053L90
     K24F01O KC2024 03 20.91149 12 20 10.89 +11 24 18.6          16.7 rqEF053L90
     K24F01O KC2024 03 20.91547 12 19 57.31 +11 18 55.3                qEF053L90

Observer details:
703 Catalina Sky Survey.  Observer T. Beuden.  Measurers B. Gray, D. Rankin,
    F. C. Shelly.  0.68-m Schmidt + 10K CCD.
H21 Astronomical Research Observatory, Westfield.  Observer R. Holmes.
    Measurers T. Linder, R. Holmes, L. Horn.  0.76-m f/3.0 astrograph + CCD.
H36 Sandlot Observatory, Scranton.  Observer G. Hug.  0.56-m f/4.8 reflector +
    CMO.
I52 Steward Observatory, Mt. Lemmon Station.  Observer R. A. Kowalski.
    Measurers T. Beuden, V. F. Carvajal, D. Fay, J. B. Fazekas, D. C. Fuls, A.
    R. Gibbs, A. D. Grauer, H. Groeller, J. K. Hogan, R. A. Kowalski, S. M.
    Larson, G. J. Leonard, D. Rankin, R. L. Seaman, F. C. Shelly, K. W.
    Wierzchos.  1.0-m prime focus + CCD.
K83 Beppe Forti Astronomical Observatory, Montelupo.  Observers M. Tombelli,
    D. Loncao, F. Cheli, G. Interrante.  Measurers M. Tombelli, F. Bernardi.
    0.40-m f/8 Ritchey-Chretien + CCD.
K88 GINOP-KHK, Piszkesteto.  Observer K. Sarneczky.  0.60-m Schmidt + CCD.
L01 Visnjan Observatory, Tican.  Observer K. Korlevic.  1.0-m f/2.9 reflector
    + CCD.
L90 ABObservatory, Rosarno.  Observer A. Brosio.  0.30-m f/3.9 reflector +
    CCD.
M38 Harsona Observatory, Nyiregyhaza.  Observer T. Elek.  0.20-m f/3 reflector
    + CCD.
X09 Deep Random Survey, Rio Hurtado.  Observers A. Schnabel, D. Ruhela.
    Measurer S. Deen.  0.43-m reflector + CMOS.
Z80 Northolt Branch Observatory.  Observer G. Wells.  0.25-m f/8.0 Ritchey-
    Chretien + CCD.

Orbital elements:
2024 FO1                                                 Earth MOID = 0.0154 AU
Epoch 2024 Mar. 31.0 TT = JDT 2460400.5                 Veres                   
M  50.43889              (2000.0)            P               Q                  
n   0.73110035     Peri.  100.82586     -0.20277175     -0.97920603             
a   1.2203509      Node     0.94420     +0.68229217     -0.14586617             
e   0.3387075      Incl.   22.32101     +0.70239662     -0.14099152             
P   1.35           H   26.57          G   0.15           U   7                  
Residuals in seconds of arc
240319 703  0.5-  0.3+    240320 K88  0.9+  1.3+    240320 H36  0.0   0.3-
240319 703  0.7+  0.5-    240320 K88  1.1+  1.1+    240320 H36  0.0   0.8-
240319 703  0.5-  0.1+    240320 K88  0.6+  0.2+    240320 H36  0.4+  0.2+
240320 K88  0.5+  0.9-    240320 M38  1.0-  1.3-    240320 K83  0.7-  0.1+
240320 K88  0.4-  0.8+    240320 K88  0.7+  1.0+    240320 K83  0.0   0.1-
240320 K88  1.2+  1.0+    240320 K88  0.5+  0.4+    240320 Z80  0.5+  0.2-
240320 K88  0.6+  1.0+    240320 M38  1.3+  0.3-    240320 K83  0.1+  0.1-
240320 K88  0.2+  0.1+    240320 X09  0.5+  0.7+    240320 L01  0.4-  0.7+
240320 K88  0.8+  0.9+    240320 X09  0.1-  0.2-    240320 L01  0.2-  0.2-
240320 K88  0.4-  0.7+    240320 I52  0.2+  0.7+    240320 L01  0.5-  0.9+
240320 K88  0.1+  0.4+    240320 I52  0.0   0.5+    240320 L01  0.7-  0.2-
240320 K88  0.2+  1.4+    240320 I52  0.4+  0.2+    240320 L01  0.3+  0.8+
240320 K88  0.2+  0.6+    240320 I52  0.2+  0.3+    240320 L01  0.2+  0.1-
240320 K88  0.5+  0.4+    240320 H21  0.2-  0.4-    240320 Z80  0.5+  0.4-
240320 K88  1.1+  0.8+    240320 H21  0.0   0.1-    240320 L90  3.2+  4.0+
240320 K88  0.5+  1.1+    240320 H21  0.3-  0.5-    240320 L90  0.1+  2.3+
240320 K88  0.3+  0.1+    240320 H21  0.1+  0.1-    240320 L90  0.5-  0.8-

Ephemeris:
2024 FO1                 a,e,i = 1.22, 0.34, 22                  q = 0.8070
Date    TT    R. A. (2000) Decl.     Delta      r    Elong.  Phase     V
2024 02 20    21 40 56.2 +42 06 44   0.2453  0.8667    53.8   113.0    27.6
...
2024 03 06    21 19 03.5 +47 09 31   0.1203  0.9339    58.0   115.8    26.4
...
2024 03 14    20 31 13.1 +53 18 03   0.05385 0.9752    67.9   109.2    24.3
...
2024 03 20    13 25 33.2 +34 18 48   0.01536 1.0077   140.2    39.2    19.1
2024 03 21    12 15 23.8 +09 32 33   0.01735 1.0132   169.7    10.1    18.4
2024 03 22    11 36 11.4 -07 22 34   0.02264 1.0187   170.0     9.8    19.0
...
2024 03 28    10 27 42.4 -32 29 23   0.06989 1.0520   139.3    38.2    22.4
...
2024 04 05    10 12 01.5 -37 00 40   0.1383  1.0968   131.4    43.2    24.1
...
2024 04 20    10 13 53.7 -38 12 33   0.2703  1.1798   124.8    44.4    25.8

M. P. C. Staff               (C) Copyright 2024 MPC           M.P.E.C. 2024-F53





More information about the Iaude mailing list